DECAYED

STARLINK-2053, 47663 (Decayed)

Orbit data source: Space-Track

STARLINK-2053, 47663 was a payload satellite owned by SpaceX/Seattle (US) in LEO that was launched on Tue, 16 Feb 2021 UTC via an FALCON 9 launch vehicle from the Air Force Eastern Test Range (AFETR). Payload-class satellites include a variety of spacecraft equipped with specific instruments for various scientific and technological missions. These include communications satellites like Starlink; space stations such as the ISS; scientific satellites like the Hubble; Earth observation satellites from companies like Planet Labs, Umbra, and HawkEye 360; GPS; miniature CubeSats for education and research; and military/defense satellites.

Not visible in the next 10 days
Identifier
47663, 2021-012AV
Orbit
Decayed
Country
Flag of USUS
Related business
Manufacturer
SpaceX/Seattle
Mission
Decayed Commercial Communications
Bus & Motor
STARLINK, Unknown motor
Mass
260 kg wet, ~248 kg dry
Launch date (UTC)
2021-02-16 (5 years ago)
Launch vehicle
FALCON 9
Launch site
Air Force Eastern Test Range (AFETR)
Object type
Payload
Rocket body
Debris
Shape & HBR
Box + 1 Pan, 10.1 m
Radar Cross Section
13.562 m², Large (>1 m²)

Expand to show TLE details & history
Last TLE update: 7 months ago

TLE from 7 months ago
0 STARLINK-2053
1 47663U 21012AV  25146.83492557  .18049792  12521-4  33291-3 0  9999
2 47663  53.0226 124.0587 0006882 250.5091 189.8877 16.47093166238407
Epoch: 2025-05-26T20:02Z
TLE epoch observation values (Epoch: 2025-05-26T20:02:17.569Z)
Latitude
52.12424°
Longitude
13.09407°
Altitude
157.659 km
Speed
7.815 km/s
True Right ascension
13h 13m 14s
True Declination
51° 56' 32"
Sunlit
Object was in daylight at epoch
Visualization orbit readout
Latitude
Unknown
Longitude
Unknown
Altitude
Unknown
Speed
Unknown
Apparent Right ascension
Unknown
Apparent Declination
Unknown
Sunlit
N/A
Visualization observer readout
Local Sidereal Time
03:22:38
Azimuth
Unknown
Elevation
Unknown
Doppler factor
Unknown
Orbital elements
Apogee altitude
151.784 km
Perigee altitude
142.803 km
Semi-major axis
6,525.431 km
Eccentricity
0.00069
Inclination
53.0226°
RAAN
124.0587°
Arg. of periapsis
250.5091°
True anomaly
189.87417°
Mean anomaly
189.8877°
Eccentric anomaly
189.88093°
Mean motion
4.11746 °/min
Orbital period
87.43 mins
BSTAR
0.00033291
Loading maneuver chart data...
Computing Atmospheric mass density...

Documentation

Showing up to 5 results
|